IZ4UFQ-10 Weather Reports


Display with metric or nautical units.
time (UTC)temp
F
wind
direction
speed
MPH
gust
MPH
rain 1hr
in
rain 24hr
in
rain mn
in
humidity
%
barometer
mb
20260506143755 66 164 0.0 0.0 0.00 1.23 1.23 76 1008.2
20260506143255 66 164 0.0 0.0 0.00 1.23 1.23 77 1008.2
20260506142755 66 164 0.0 0.0 0.00 1.23 1.23 77 1008.1
20260506142255 66 165 0.0 0.0 0.00 1.23 1.23 78 1008.2
20260506141754 65 153 0.0 0.0 0.00 1.23 1.23 78 1008.1
20260506141254 65 177 0.0 0.0 0.00 1.23 1.23 78 1008.1
20260506140754 65 191 0.0 0.0 0.00 1.23 1.23 78 1008.2
20260506140253 65 194 0.0 0.0 0.00 1.23 1.23 79 1008.2
20260506135753 65 215 0.0 0.0 0.00 1.23 1.23 81 1008.4
20260506135253 65 186 0.0 0.0 0.00 1.23 1.23 82 1008.5
20260506134753 64 200 0.0 0.0 0.00 1.23 1.23 83 1008.5
20260506134252 64 173 0.0 0.0 0.00 1.23 1.23 83 1008.6
20260506133752 64 171 0.0 0.0 0.00 1.23 1.23 83 1008.7
20260506133252 64 170 0.0 0.0 0.00 1.23 1.23 84 1008.8
20260506132751 64 176 0.0 0.0 0.00 1.23 1.23 84 1009.0
20260506132251 64 175 0.0 0.0 0.00 1.23 1.23 84 1009.0
20260506131751 64 174 0.0 0.0 0.00 1.23 1.23 83 1008.9
20260506131251 64 175 0.0 0.0 0.01 1.23 1.23 83 1009.0
20260506130750 64 200 0.0 0.0 0.02 1.23 1.23 84 1009.2
20260506130250 64 211 0.0 0.0 0.03 1.23 1.23 84 1009.3
20260506125750 63 208 0.0 0.0 0.03 1.23 1.23 84 1009.3
20260506125249 63 199 0.0 0.0 0.03 1.23 1.23 85 1009.3
20260506124749 63 181 0.0 0.0 0.03 1.23 1.23 85 1009.3
20260506124249 63 217 0.0 0.0 0.03 1.23 1.23 85 1009.3
20260506123749 63 206 0.0 0.0 0.03 1.23 1.23 85 1009.3
20260506123248 64 160 0.0 0.0 0.03 1.23 1.23 85 1009.3
20260506122748 64 174 0.0 0.0 0.03 1.23 1.23 85 1009.2
20260506122248 65 359 0.0 0.0 0.03 1.23 1.23 85 1009.0
20260506121747 65 359 0.0 0.0 0.03 1.23 1.23 84 1008.9
20260506121247 66 359 0.0 0.0 0.02 1.22 1.22 84 1009.0
20260506120747 67 241 0.0 0.0 0.01 1.21 1.21 82 1009.2
20260506120246 67 238 0.0 0.0 0.00 1.20 1.20 80 1009.2
20260506115746 67 256 0.0 0.0 0.00 1.21 1.20 75 1009.0
20260506115246 68 272 0.0 0.0 0.00 1.21 1.20 74 1009.1
20260506114746 68 238 0.0 0.0 0.00 1.21 1.20 74 1008.8
20260506114245 68 213 0.0 0.0 0.00 1.21 1.20 72 1008.8
20260506113745 68 130 0.0 0.0 0.00 1.21 1.20 72 1008.7
20260506113245 68 174 0.0 0.0 0.00 1.21 1.20 72 1008.8
20260506112744 68 168 0.0 0.0 0.00 1.21 1.20 71 1008.7
20260506112244 68 172 0.0 0.0 0.00 1.21 1.20 70 1008.8
20260506111744 68 187 0.0 0.0 0.00 1.21 1.20 70 1008.8
20260506111244 68 184 0.0 0.0 0.00 1.21 1.20 72 1008.8
20260506110743 68 170 0.0 0.0 0.00 1.21 1.20 70 1008.7
20260506110243 68 171 0.0 0.0 0.00 1.21 1.20 74 1008.8
20260506105743 67 129 0.0 0.0 0.00 1.21 1.20 75 1008.8
20260506105242 67 166 0.0 0.0 0.00 1.21 1.20 79 1008.9
20260506104742 66 166 0.0 0.0 0.00 1.21 1.20 84 1009.0
20260506104242 65 162 0.0 0.0 0.00 1.21 1.20 88 1008.9
20260506103742 64 158 0.0 0.0 0.00 1.21 1.20 89 1008.9
20260506103241 64 132 0.0 0.0 0.00 1.21 1.20 92 1009.0
20260506102741 63 177 0.0 0.0 0.00 1.21 1.20 93 1008.9
20260506102241 63 158 0.0 0.0 0.00 1.21 1.20 95 1009.0
20260506101740 63 86 0.0 0.0 0.00 1.21 1.20 95 1008.9
20260506101240 63 116 0.0 0.0 0.00 1.21 1.20 96 1009.1
20260506100740 62 88 0.0 0.0 0.00 1.21 1.20 96 1009.2
20260506100240 62 108 0.0 0.0 0.00 1.21 1.20 96 1009.3
20260506095739 61 129 0.0 0.0 0.00 1.24 1.20 96 1009.3
20260506095239 61 118 0.0 0.0 0.00 1.24 1.20 96 1009.4
20260506094739 61 138 0.0 0.0 0.00 1.24 1.20 96 1009.3
20260506094239 61 106 0.0 0.0 0.00 1.24 1.20 96 1009.4
20260506093738 60 118 0.0 0.0 0.00 1.24 1.20 96 1009.4
20260506093238 60 136 0.0 0.0 0.01 1.24 1.20 96 1009.3
20260506092738 60 122 0.0 0.0 0.01 1.24 1.20 96 1009.5
20260506092237 60 106 0.0 0.0 0.02 1.24 1.20 96 1009.5
20260506091737 60 125 0.0 0.0 0.03 1.24 1.20 97 1009.4
20260506091237 59 137 0.0 0.0 0.04 1.24 1.20 96 1009.4
20260506090737 59 140 0.0 0.0 0.05 1.24 1.20 96 1009.3
20260506090236 59 141 0.0 0.0 0.05 1.24 1.20 96 1009.4
20260506085736 58 124 0.0 0.0 0.06 1.31 1.20 96 1009.4
20260506085236 58 108 0.0 0.0 0.07 1.31 1.20 96 1009.4
20260506084735 58 116 0.0 0.0 0.07 1.31 1.20 96 1009.6
20260506084235 58 112 0.0 0.0 0.07 1.31 1.20 96 1009.7
20260506083735 58 111 0.0 0.0 0.07 1.31 1.20 96 1009.6
20260506083235 58 110 0.0 0.0 0.06 1.30 1.19 96 1009.5
20260506082734 58 108 0.0 0.0 0.07 1.30 1.19 96 1009.5
20260506082234 58 119 0.0 0.0 0.06 1.29 1.18 96 1009.5
20260506081734 58 123 0.0 0.0 0.05 1.28 1.17 96 1009.5
20260506081233 58 141 0.0 0.0 0.05 1.27 1.16 96 1009.6
20260506080733 58 142 0.0 0.0 0.04 1.26 1.15 96 1009.5
20260506080233 58 96 0.0 0.0 0.05 1.26 1.15 96 1009.4
20260506073231 57 102 0.0 0.0 0.07 1.24 1.13 96 1009.5
20260506072731 57 111 0.0 0.0 0.07 1.23 1.12 96 1009.4
20260506072231 57 112 0.0 0.0 0.08 1.23 1.12 96 1009.5
20260506071730 57 113 0.0 0.0 0.10 1.23 1.12 96 1009.5
20260506071230 57 127 0.0 0.0 0.11 1.22 1.11 96 1009.6
20260506070730 57 127 0.0 0.0 0.14 1.22 1.11 96 1009.6
20260506070229 57 128 0.0 0.0 0.15 1.21 1.10 96 1009.6
20260506062227 56 117 0.0 0.0 0.19 1.15 1.04 95 1009.9
20260506061727 56 118 0.0 0.0 0.18 1.13 1.02 95 1009.8
20260506061227 56 116 0.0 0.0 0.17 1.11 1.00 95 1009.8
20260506060726 56 116 0.0 0.0 0.15 1.08 0.97 95 1009.7
20260506060226 56 118 0.0 0.0 0.14 1.06 0.95 95 1009.6
20260506051223 56 129 0.0 0.0 0.20 1.20 0.83 95 1009.9
20260506050723 56 135 0.0 0.0 0.22 1.19 0.82 95 1010.1
20260506050222 56 137 0.0 0.0 0.24 1.18 0.81 95 1010.1
20260506044722 56 134 0.0 0.0 0.28 1.17 0.78 95 1010.3
20260506044221 56 127 0.0 0.0 0.28 1.16 0.77 95 1010.2
20260506043721 56 126 0.0 0.0 0.27 1.15 0.76 95 1010.1
20260506043221 56 178 0.0 0.0 0.25 1.13 0.74 95 1009.8
20260506042720 56 179 0.0 0.0 0.24 1.12 0.73 95 1009.9
20260506042220 56 178 0.0 0.0 0.21 1.09 0.70 95 1010.2
20260506041720 56 164 0.0 0.0 0.18 1.06 0.67 95 1010.3
20260506041220 56 146 0.0 0.0 0.14 1.02 0.63 95 1010.5
20260506040719 56 176 0.0 0.0 0.11 0.99 0.60 95 1010.3
20260506040219 56 144 0.0 0.0 0.09 0.96 0.57 95 1010.3
20260506035719 56 158 0.0 0.0 0.07 0.93 0.54 95 1010.3
20260506035218 56 146 0.0 0.0 0.07 0.91 0.52 95 1010.2
20260506034718 56 178 0.0 0.0 0.06 0.89 0.50 95 1010.2
20260506034218 56 181 0.0 0.0 0.06 0.88 0.49 95 1010.2
20260506033718 56 141 0.0 0.0 0.08 0.88 0.49 95 1010.1
20260506033217 56 142 0.0 0.0 0.08 0.88 0.49 95 1010.1
20260506032717 57 126 0.0 0.0 0.09 0.88 0.49 95 1010.0
20260506032217 57 126 0.0 0.0 0.10 0.88 0.49 95 1010.1
20260506031716 57 125 0.0 0.0 0.11 0.88 0.49 95 1010.1
20260506031216 57 133 0.0 0.0 0.11 0.88 0.49 95 1010.0
20260506030716 58 121 0.0 0.0 0.11 0.88 0.49 95 1010.0
20260506030216 58 125 0.0 0.0 0.10 0.87 0.48 95 1010.0
20260506025715 58 359 0.0 0.0 0.09 0.86 0.47 95 1010.2
20260506025215 58 121 0.0 0.0 0.08 0.84 0.45 95 1010.3
20260506024715 58 359 0.0 0.0 0.08 0.83 0.44 95 1010.2
20260506024214 58 359 0.0 0.0 0.09 0.82 0.43 95 1010.3
20260506023714 58 120 0.0 0.0 0.09 0.80 0.41 94 1010.3
20260506023214 58 125 0.0 0.0 0.11 0.80 0.41 95 1010.4
20260506022714 58 67 0.0 0.0 0.12 0.79 0.40 95 1010.4
20260506022213 58 67 0.0 0.0 0.13 0.78 0.39 94 1010.6
20260506021713 59 64 0.0 0.0 0.15 0.77 0.38 94 1010.8
20260506021213 59 66 0.0 0.0 0.16 0.77 0.38 94 1010.9
20260506020712 59 64 0.0 0.0 0.18 0.77 0.38 94 1011.1
20260506020212 59 62 0.0 0.0 0.21 0.77 0.38 94 1010.9
20260506015712 59 54 0.0 0.0 0.24 0.77 0.38 94 1010.8
20260506015211 59 52 0.0 0.0 0.25 0.76 0.37 94 1010.8
20260506014711 59 44 0.0 0.0 0.27 0.75 0.36 94 1010.6
20260506014211 59 47 0.0 0.0 0.27 0.73 0.34 94 1011.0
20260506013711 59 47 0.0 0.0 0.27 0.71 0.32 94 1011.3
20260506013210 59 45 0.0 0.0 0.27 0.69 0.30 94 1011.5
20260506012710 59 45 0.0 0.0 0.26 0.67 0.28 94 1011.3
20260506012210 59 45 0.0 0.0 0.25 0.65 0.26 94 1011.3
20260506011710 59 47 0.0 0.0 0.22 0.62 0.23 94 1011.4
20260506011209 59 45 0.0 0.0 0.21 0.61 0.22 93 1011.6
20260506010709 59 47 0.0 0.0 0.19 0.59 0.20 93 1011.6
20260506010209 59 44 0.0 0.0 0.16 0.56 0.17 93 1011.7
20260506005708 59 45 0.0 0.0 0.13 0.53 0.14 93 1011.6
20260506005208 59 45 0.0 0.0 0.11 0.51 0.12 93 1011.6
20260506004708 59 45 0.0 0.0 0.08 0.48 0.09 93 1011.5
20260506004207 59 44 0.0 0.0 0.06 0.46 0.07 93 1011.3
20260506003707 59 45 0.0 0.0 0.04 0.44 0.05 93 1011.2
20260506003207 59 45 0.0 0.0 0.02 0.42 0.03 93 1011.2
20260506002707 59 45 0.0 0.0 0.01 0.41 0.02 93 1011.0
20260506002206 59 45 0.0 0.0 0.01 0.40 0.01 93 1011.0
20260506001706 59 45 0.0 0.0 0.01 0.40 0.01 93 1011.0
20260506001206 59 45 0.0 0.0 0.01 0.40 0.01 93 1011.0
20260506000705 59 45 0.0 0.0 0.01 0.40 0.01 93 1011.1
20260506000205 59 45 0.0 0.0 0.01 0.40 0.01 92 1011.3
20260505235705 59 45 0.0 0.0 0.01 0.40 0.01 92 1011.5
20260505235205 59 45 0.0 0.0 0.01 0.40 0.01 92 1011.6
20260505234704 59 45 0.0 0.0 0.01 0.40 0.01 92 1011.7
20260505234204 59 45 0.0 0.0 0.01 0.40 0.01 92 1011.7
20260505233704 59 41 0.0 0.0 0.01 0.40 0.01 92 1011.8
20260505233203 59 40 0.0 0.0 0.01 0.40 0.01 92 1011.7
20260505232703 59 40 0.0 0.0 0.01 0.40 0.01 92 1011.7
20260505232203 59 39 0.0 0.0 0.00 0.39 0.00 92 1011.7
20260505231703 59 39 0.0 0.0 0.00 0.39 0.00 92 1011.7
20260505231202 59 39 0.0 0.0 0.00 0.39 0.00 92 1011.7
20260505230702 59 40 0.0 0.0 0.00 0.39 0.00 91 1011.7
20260505230202 59 40 0.0 0.0 0.00 0.39 0.00 91 1011.6
20260505225701 59 39 0.0 0.0 0.00 0.39 0.00 91 1011.7
20260505225201 59 39 0.0 0.0 0.00 0.39 0.00 91 1011.8
20260505224701 59 39 0.0 0.0 0.00 0.39 0.00 91 1011.8
20260505224201 59 39 0.0 0.0 0.00 0.39 0.00 91 1011.9
20260505223700 59 39 0.0 0.0 0.00 0.39 0.00 91 1011.8
20260505223200 60 39 0.0 0.0 0.00 0.39 0.00 91 1011.9
20260505222700 60 40 0.0 0.0 0.00 0.39 0.00 91 1011.9
20260505222159 60 39 0.0 0.0 0.00 0.39 0.00 91 1012.1
20260505221659 60 39 0.0 0.0 0.00 0.39 0.00 90 1012.1
20260505221159 60 39 0.0 0.0 0.00 0.39 0.00 90 1012.2
20260505220659 60 39 0.0 0.0 0.00 0.39 0.00 90 1012.2
20260505220158 60 39 0.0 0.0 0.00 0.39 0.00 90 1012.2
20260505215658 60 39 0.0 0.0 0.00 0.39 0.00 90 1012.2
20260505215158 60 39 0.0 0.0 0.00 0.39 0.39 90 1012.2
20260505214657 60 40 0.0 0.0 0.00 0.39 0.39 90 1012.4
20260505214157 60 40 0.0 0.0 0.00 0.39 0.39 89 1012.4
20260505213657 60 40 0.0 0.0 0.00 0.39 0.39 89 1012.5
20260505213157 60 39 0.0 0.0 0.00 0.39 0.39 89 1012.5
20260505212656 60 40 0.0 0.0 0.00 0.39 0.39 89 1012.6
20260505212156 61 40 0.0 0.0 0.00 0.39 0.39 88 1012.5
20260505211656 61 40 0.0 0.0 0.00 0.39 0.39 88 1012.5
20260505211155 61 39 0.0 0.0 0.00 0.39 0.39 88 1012.5
20260505210655 61 40 0.0 0.0 0.00 0.39 0.39 88 1012.5
20260505210155 61 39 0.0 0.0 0.00 0.39 0.39 87 1012.4
20260505205655 61 40 0.0 0.0 0.00 0.39 0.39 87 1012.4
20260505205154 62 40 0.0 0.0 0.00 0.39 0.39 87 1012.5
20260505204654 62 40 0.0 0.0 0.00 0.39 0.39 87 1012.4
20260505204154 62 40 0.0 0.0 0.00 0.39 0.39 87 1012.5
20260505203653 62 39 0.0 0.0 0.00 0.39 0.39 87 1012.3
20260505203153 62 39 0.0 0.0 0.00 0.39 0.39 87 1012.3
20260505202653 62 39 0.0 0.0 0.00 0.39 0.39 87 1012.4
20260505202153 62 39 0.0 0.0 0.00 0.39 0.39 86 1012.4
20260505201652 62 39 0.0 0.0 0.00 0.39 0.39 86 1012.4
20260505201152 62 40 0.0 0.0 0.00 0.39 0.39 86 1012.3
20260505200652 62 39 0.0 0.0 0.00 0.39 0.39 86 1012.3
20260505200151 62 43 0.0 0.0 0.00 0.39 0.39 85 1012.4
20260505195651 63 45 0.0 0.0 0.00 0.39 0.39 85 1012.3
20260505195151 63 45 0.0 0.0 0.00 0.39 0.39 85 1012.3
20260505194650 63 47 0.0 0.0 0.00 0.39 0.39 85 1012.2
20260505194150 63 47 0.0 0.0 0.00 0.39 0.39 85 1012.1
20260505193650 63 48 0.0 0.0 0.00 0.39 0.39 84 1012.0
20260505193150 64 38 0.0 0.0 0.00 0.39 0.39 84 1012.0
20260505192649 64 19 0.0 0.0 0.00 0.39 0.39 84 1011.9
20260505192149 64 22 0.0 0.0 0.00 0.39 0.39 84 1011.8
20260505191649 64 22 0.0 0.0 0.00 0.39 0.39 83 1011.8
20260505191148 64 21 0.0 0.0 0.00 0.39 0.39 82 1011.8
20260505190648 64 29 0.0 0.0 0.00 0.39 0.39 82 1011.7
20260505190148 65 330 0.0 0.0 0.00 0.39 0.39 81 1011.7
20260505185648 65 329 0.0 0.0 0.00 0.39 0.39 81 1011.6
20260505185147 65 329 0.0 0.0 0.00 0.39 0.39 81 1011.6
20260505184647 65 329 0.0 0.0 0.00 0.39 0.39 81 1011.6
20260505184147 65 327 0.0 0.0 0.00 0.39 0.39 81 1011.5
20260505183647 65 323 0.0 0.0 0.00 0.39 0.39 81 1011.5
20260505183146 65 312 0.0 0.0 0.00 0.39 0.39 81 1011.5
20260505182646 65 316 0.0 0.0 0.00 0.39 0.39 81 1011.5
20260505182146 65 315 0.0 0.0 0.00 0.39 0.39 81 1011.5
20260505181645 65 347 0.0 0.0 0.00 0.39 0.39 81 1011.5
20260505181145 65 347 0.0 0.0 0.00 0.39 0.39 81 1011.5
20260505180645 66 348 0.0 0.0 0.00 0.39 0.39 81 1011.5
20260505180144 66 343 0.0 0.0 0.00 0.39 0.39 81 1011.4
20260505175644 66 335 0.0 0.0 0.00 0.39 0.39 81 1011.4
20260505175144 66 316 0.0 0.0 0.00 0.39 0.39 81 1011.3
20260505174644 66 323 0.0 0.0 0.00 0.39 0.39 80 1011.3
20260505174143 66 327 0.0 0.0 0.00 0.39 0.39 80 1011.2
20260505173643 66 326 0.0 0.0 0.00 0.39 0.39 80 1011.2
20260505173143 67 324 0.0 0.0 0.00 0.39 0.39 80 1011.2
20260505172642 67 322 0.0 0.0 0.00 0.39 0.39 79 1011.2
20260505172142 67 300 0.0 0.0 0.00 0.39 0.39 80 1011.2
20260505171642 67 290 0.0 0.0 0.00 0.39 0.39 80 1011.2
20260505171142 67 288 0.0 0.0 0.00 0.39 0.39 80 1011.1
20260505170641 67 300 0.0 0.0 0.00 0.39 0.39 80 1011.2
20260505170141 67 293 0.0 0.0 0.00 0.39 0.39 80 1011.1
20260505165641 66 292 0.0 0.0 0.00 0.39 0.39 80 1011.2
20260505165140 66 287 0.0 0.0 0.00 0.39 0.39 80 1011.2
20260505164640 67 272 0.0 0.0 0.00 0.39 0.39 80 1011.2
20260505164140 67 341 0.0 0.0 0.00 0.39 0.39 80 1011.2
20260505163640 67 345 0.0 0.0 0.00 0.39 0.39 80 1011.1
20260505163139 67 316 0.0 0.0 0.00 0.39 0.39 80 1011.1
20260505162639 67 324 0.0 0.0 0.00 0.39 0.39 80 1011.1
20260505162139 67 320 0.0 0.0 0.00 0.39 0.39 80 1011.2
20260505161638 67 280 0.0 0.0 0.00 0.39 0.39 79 1011.1
20260505161138 67 339 0.0 0.0 0.00 0.39 0.39 80 1011.1
20260505160638 67 12 0.0 0.0 0.00 0.39 0.39 80 1011.1
20260505160138 67 354 0.0 0.0 0.00 0.39 0.39 80 1011.2
20260505153136 68 354 0.0 0.0 0.00 0.39 0.39 78 1011.1
20260505152636 68 14 0.0 0.0 0.00 0.39 0.39 78 1011.1
20260505152135 68 348 0.0 0.0 0.00 0.39 0.39 77 1011.1
20260505151635 68 354 0.0 0.0 0.00 0.39 0.39 78 1011.1
20260505151135 68 326 0.0 0.0 0.00 0.39 0.39 78 1011.0
20260505150634 67 342 0.0 0.0 0.00 0.39 0.39 79 1011.1
20260505150134 67 4 0.0 0.0 0.00 0.39 0.39 79 1011.2